Location: La Fredeussais
(48.1780°N, 1.3980°W)
Time: 08:28:22
(UTC+00:00)

STARLINK-2754 - Pass Details

Date: 30 July 2021
Orbit: 546 x 548 km, 53.1° (Epoch: 19 September)

Event Time Altitude Azimuth Distance (km) Brightness Sun altitude
Rises 20:16:26 0° 295° (WNW) 2,719 9.4 -5.3°
Reaches altitude 10° 20:18:45 10° 289° (WNW) 1,823 7.8 -5.7°
Maximum altitude 20:22:41 44° 217° (SW) 769 4.4 -6.2°
Drops below altitude 10° 20:26:36 10° 146° (SE) 1,813 5.7 -6.7°
Enters shadow 20:27:06 - 144° (SE) 2,004 5.9 -6.8°
